Simultaneous Nadir Overpasses (SNOs) Predictions

Prediction of SNOs between GOES-16 and AQUA Satellite Orbit:

Table of predicted SNOs for the next 14.0 days since TLE Epoch: 1/10/2020
Index Date Time (GOES-16) GOES-16 Lat,Lon AQUA Lat,Lon Distance(km) Time Diff (sec)
1 01/11/2020 06:50:21 0.05, -75.22 0.68, -78.28 348.45 80
2 01/13/2020 06:38:10 0.05, -75.23 0.09, -75.32 11.16 80
3 01/15/2020 06:23:20 0.05, -75.25 -0.57, -72.37 327.31 80
4 01/15/2020 18:47:25 -0.05, -75.26 -0.54, -77.57 262.25 80
5 01/17/2020 18:32:34 -0.05, -75.29 0.07, -74.61 76.94 80
6 01/19/2020 18:20:24 -0.05, -75.32 0.73, -71.66 416.56 80
7 01/20/2020 06:44:19 0.06, -75.33 0.37, -76.81 168.44 80
8 01/22/2020 06:29:28 0.06, -75.37 -0.24, -73.85 171.78 80
9 01/22/2020 18:53:33 -0.07, -75.38 -0.86, -79.05 417.52 80
10 01/24/2020 18:41:22 -0.08, -75.42 -0.24, -76.09 76.46 80




NCC Satellite Simultaneous Nadir Overpasses (SNOs) Prediction Service
